GW3789 Weather Reports


Display with metric or nautical units.
time (UTC)temp
F
wind
direction
speed
MPH
gust
MPH
rain 1hr
in
rain 24hr
in
rain mn
in
humidity
%
barometer
mb
20260904044017 67 149 0.0 1.0 0.00 0.00 0.00 59 1023.6
20260904043516 67 129 0.0 1.0 0.00 0.00 0.00 59 1023.6
20260904043010 67 142 0.0 1.0 0.00 0.00 0.00 59 1023.6
20260904042509 67 112 0.0 1.0 0.00 0.00 0.00 59 1023.5
20260904042011 67 196 0.0 1.0 0.00 0.00 0.00 59 1023.6
20260904041516 67 213 0.0 1.0 0.00 0.00 0.00 60 1023.6
20260904041011 66 151 0.0 1.0 0.00 0.00 0.00 60 1023.6
20260904040510 66 186 0.0 1.0 0.00 0.00 0.00 60 1023.6
20260904040024 66 139 0.0 1.0 0.00 0.00 0.00 60 1023.6
20260904035512 65 139 0.0 0.0 0.00 0.00 0.00 60 1023.7
20260904035020 65 139 0.0 0.0 0.00 0.00 0.00 60 1023.7
20260904034526 66 130 0.0 0.0 0.00 0.00 0.00 60 1023.7
20260904034014 66 130 0.0 1.0 0.00 0.00 0.00 60 1023.7
20260904033516 66 130 0.0 1.0 0.00 0.00 0.00 60 1023.8
20260904033032 66 131 0.0 1.0 0.00 0.00 0.00 60 1023.8
20260904032518 66 129 0.0 1.0 0.00 0.00 0.00 59 1023.8
20260904032017 66 129 0.0 1.0 0.00 0.00 0.00 59 1023.9
20260904031533 66 129 0.0 1.0 0.00 0.00 0.00 59 1023.9
20260904031007 66 129 0.0 0.0 0.00 0.00 0.00 58 1023.9
20260904030512 67 129 0.0 0.0 0.00 0.00 0.00 57 1024.0
20260904030017 67 129 0.0 1.0 0.00 0.00 0.00 57 1024.1
20260904025513 67 129 0.0 1.0 0.00 0.00 0.00 57 1024.1
20260904025012 67 129 0.0 1.0 0.00 0.00 0.00 58 1024.1
20260904024531 66 108 0.0 1.0 0.00 0.00 0.00 59 1024.1
20260904024015 66 108 0.0 1.0 0.00 0.00 0.00 58 1024.2
20260904023515 66 108 0.0 1.0 0.00 0.00 0.00 58 1024.2
20260904023027 66 108 0.0 1.0 0.00 0.00 0.00 58 1024.3
20260904022516 67 108 0.0 1.0 0.00 0.00 0.00 58 1024.3
20260904022015 67 108 0.0 1.0 0.00 0.00 0.00 57 1024.3
20260904021534 67 108 0.0 1.0 0.00 0.00 0.00 57 1024.4
20260904021016 67 110 0.0 1.0 0.00 0.00 0.00 58 1024.4
20260904020518 66 110 0.0 0.0 0.00 0.00 0.00 59 1024.5
20260904020038 66 110 0.0 1.0 0.00 0.00 0.00 59 1024.5
20260904015515 67 110 0.0 1.0 0.00 0.00 0.00 59 1024.5
20260904015011 67 110 0.0 0.0 0.00 0.00 0.00 58 1024.6
20260904014518 67 110 0.0 1.0 0.00 0.00 0.00 58 1024.6
20260904014013 67 110 0.0 1.0 0.00 0.00 0.00 58 1024.6
20260904013513 67 108 0.0 1.0 0.00 0.00 0.00 58 1024.6
20260904013025 67 93 0.0 1.0 0.00 0.00 0.00 59 1024.7
20260904012516 67 95 0.0 1.0 0.00 0.00 0.00 59 1024.7
20260904012015 67 96 1.0 1.0 0.00 0.00 0.00 59 1024.7
20260904011535 67 127 0.0 1.0 0.00 0.00 0.00 59 1024.8
20260904011018 67 127 0.0 1.0 0.00 0.00 0.00 59 1024.9
20260904010519 66 115 0.0 2.0 0.00 0.00 0.00 60 1024.9
20260904010031 66 84 1.0 2.0 0.00 0.00 0.00 61 1024.9
20260904005518 66 131 0.0 1.0 0.00 0.00 0.00 61 1025.0
20260904005015 66 106 0.0 1.0 0.00 0.00 0.00 62 1025.0
20260904004514 66 106 0.0 1.0 0.00 0.00 0.00 61 1025.0
20260904004010 66 106 0.0 1.0 0.00 0.00 0.00 61 1025.1
20260904003517 66 106 0.0 1.0 0.00 0.00 0.00 62 1025.1
20260904003023 66 122 0.0 0.0 0.00 0.00 0.00 61 1025.2
20260904002516 67 122 0.0 1.0 0.00 0.00 0.00 61 1025.3
20260904002012 67 122 0.0 1.0 0.00 0.00 0.00 61 1025.3
20260904001503 66 122 0.0 1.0 0.00 0.00 0.00 62 1025.3
20260904001004 66 117 0.0 1.0 0.00 0.00 0.00 63 1025.4
20260904000504 67 119 0.0 1.0 0.00 0.00 0.00 62 1025.5
20260904000010 67 119 0.0 2.0 0.00 0.00 0.00 62 1025.4
20260903235505 67 120 0.0 4.0 0.00 0.00 0.00 62 1025.6
20260903235007 68 113 1.0 5.0 0.00 0.00 0.00 61 1025.6
20260903234513 68 90 2.0 5.0 0.00 0.00 0.00 61 1025.7
20260903234008 68 91 1.0 6.0 0.00 0.00 0.00 60 1025.7
20260903233509 68 100 3.0 6.0 0.00 0.00 0.00 60 1025.7
20260903233015 68 93 2.0 4.0 0.00 0.00 0.00 61 1025.8
20260903232510 68 110 2.0 4.0 0.00 0.00 0.00 61 1025.8
20260903232014 68 104 0.0 2.0 0.00 0.00 0.00 61 1025.8
20260903231523 68 94 0.0 2.0 0.00 0.00 0.00 61 1025.9
20260903231011 68 108 1.0 2.0 0.00 0.00 0.00 61 1025.9
20260903230515 68 108 0.0 3.0 0.00 0.00 0.00 61 1025.9
20260903230028 67 77 0.0 3.0 0.00 0.00 0.00 62 1025.9
20260903225505 67 101 1.0 2.0 0.00 0.00 0.00 63 1025.9
20260903225002 67 91 0.0 1.0 0.00 0.00 0.00 62 1026.0
20260903224509 67 95 0.0 1.0 0.00 0.00 0.00 61 1026.0
20260903224006 67 122 0.0 1.0 0.00 0.00 0.00 61 1026.0
20260903223508 67 116 0.0 1.0 0.00 0.00 0.00 60 1026.0
20260903223023 68 134 0.0 1.0 0.00 0.00 0.00 60 1026.1
20260903222509 68 100 0.0 2.0 0.00 0.00 0.00 59 1026.1
20260903222013 68 95 0.0 2.0 0.00 0.00 0.00 59 1026.2
20260903221520 68 95 1.0 2.0 0.00 0.00 0.00 60 1026.2
20260903221013 68 115 0.0 2.0 0.00 0.00 0.00 60 1026.2
20260903220513 68 131 1.0 2.0 0.00 0.00 0.00 60 1026.2
20260903220026 68 197 0.0 2.0 0.00 0.00 0.00 59 1026.2
20260903215515 68 91 1.0 2.0 0.00 0.00 0.00 59 1026.3
20260903215015 68 113 0.0 3.0 0.00 0.00 0.00 59 1026.2
20260903214531 68 131 1.0 3.0 0.00 0.00 0.00 59 1026.3
20260903214014 68 106 0.0 1.0 0.00 0.00 0.00 59 1026.3
20260903213503 69 108 0.0 2.0 0.00 0.00 0.00 59 1026.3
20260903213009 69 130 0.0 2.0 0.00 0.00 0.00 58 1026.3
20260903212506 69 115 1.0 2.0 0.00 0.00 0.00 59 1026.4
20260903212006 68 110 0.0 2.0 0.00 0.00 0.00 59 1026.3
20260903211513 68 68 0.0 2.0 0.00 0.00 0.00 59 1026.4
20260903211010 69 88 1.0 2.0 0.00 0.00 0.00 58 1026.4
20260903210510 69 92 0.0 1.0 0.00 0.00 0.00 58 1026.5
20260903210020 69 81 0.0 2.0 0.00 0.00 0.00 58 1026.5
20260903205511 69 96 0.0 2.0 0.00 0.00 0.00 58 1026.5
20260903205011 69 99 0.0 1.0 0.00 0.00 0.00 58 1026.5
20260903204526 69 109 0.0 1.0 0.00 0.00 0.00 58 1026.5
20260903204017 69 109 0.0 1.0 0.00 0.00 0.00 58 1026.5
20260903203514 69 115 0.0 1.0 0.00 0.00 0.00 58 1026.5
20260903203035 69 111 0.0 1.0 0.00 0.00 0.00 58 1026.5
20260903202519 69 115 0.0 1.0 0.00 0.00 0.00 58 1026.5
20260903202015 69 59 0.0 1.0 0.00 0.00 0.00 58 1026.5
20260903201510 69 59 0.0 1.0 0.00 0.00 0.00 58 1026.6
20260903201010 69 92 0.0 1.0 0.00 0.00 0.00 58 1026.6
20260903200511 69 103 0.0 1.0 0.00 0.00 0.00 58 1026.6
20260903200018 69 125 0.0 0.0 0.00 0.00 0.00 58 1026.5
20260903195510 70 125 0.0 0.0 0.00 0.00 0.00 57 1026.5
20260903195010 70 126 0.0 1.0 0.00 0.00 0.00 57 1026.4
20260903194534 70 126 0.0 1.0 0.00 0.00 0.00 57 1026.4
20260903194011 70 125 0.0 1.0 0.00 0.00 0.00 57 1026.4
20260903193513 70 139 0.0 1.0 0.00 0.00 0.00 57 1026.5
20260903193031 70 282 0.0 1.0 0.00 0.00 0.00 57 1026.4
20260903192516 71 283 0.0 0.0 0.00 0.00 0.00 57 1026.4
20260903192015 71 283 0.0 1.0 0.00 0.00 0.00 57 1026.4
20260903191532 71 283 0.0 1.0 0.00 0.00 0.00 56 1026.3
20260903191018 71 283 0.0 1.0 0.00 0.00 0.00 56 1026.3
20260903190518 72 283 0.0 0.0 0.00 0.00 0.00 55 1026.3
20260903190014 72 283 0.0 0.0 0.00 0.00 0.00 54 1026.3
20260903185509 72 283 0.0 1.0 0.00 0.00 0.00 54 1026.4
20260903185010 72 283 0.0 1.0 0.00 0.00 0.00 54 1026.4
20260903184519 73 281 0.0 1.0 0.00 0.00 0.00 54 1026.4
20260903184017 73 282 0.0 1.0 0.00 0.00 0.00 54 1026.3
20260903183513 73 279 0.0 1.0 0.00 0.00 0.00 54 1026.3
20260903183025 73 274 0.0 1.0 0.00 0.00 0.00 56 1026.3
20260903182512 73 276 0.0 1.0 0.00 0.00 0.00 56 1026.3
20260903182016 74 276 0.0 1.0 0.00 0.00 0.00 54 1026.3
20260903181527 74 284 0.0 1.0 0.00 0.00 0.00 53 1026.3
20260903181017 75 284 0.0 1.0 0.00 0.00 0.00 52 1026.3
20260903180517 75 284 0.0 1.0 0.00 0.00 0.00 52 1026.3
20260903180037 76 284 0.0 1.0 0.00 0.00 0.00 50 1026.4
20260903175517 77 300 0.0 1.0 0.00 0.00 0.00 49 1026.4
20260903175019 78 300 0.0 1.0 0.00 0.00 0.00 49 1026.3
20260903174534 78 301 0.0 1.0 0.00 0.00 0.00 47 1026.3
20260903174009 78 312 0.0 2.0 0.00 0.00 0.00 47 1026.3
20260903173512 78 307 1.0 2.0 0.00 0.00 0.00 47 1026.3
20260903173021 79 302 1.0 2.0 0.00 0.00 0.00 47 1026.3
20260903172511 80 304 1.0 2.0 0.00 0.00 0.00 45 1026.4
20260903172017 81 313 0.0 2.0 0.00 0.00 0.00 44 1026.4
20260903171529 79 313 0.0 3.0 0.00 0.00 0.00 46 1026.4
20260903171016 80 314 1.0 3.0 0.00 0.00 0.00 44 1026.5
20260903170516 79 323 0.0 1.0 0.00 0.00 0.00 45 1026.4
20260903170031 79 43 0.0 3.0 0.00 0.00 0.00 46 1026.5
20260903165515 78 312 1.0 3.0 0.00 0.00 0.00 46 1026.5
20260903165018 79 302 2.0 3.0 0.00 0.00 0.00 44 1026.5
20260903164533 80 324 0.0 1.0 0.00 0.00 0.00 44 1026.5
20260903164017 80 358 0.0 1.0 0.00 0.00 0.00 44 1026.5
20260903163516 80 342 0.0 1.0 0.00 0.00 0.00 44 1026.5
20260903163040 80 11 0.0 4.0 0.00 0.00 0.00 44 1026.5
20260903162522 79 43 0.0 4.0 0.00 0.00 0.00 44 1026.6
20260903162011 80 300 2.0 4.0 0.00 0.00 0.00 43 1026.6
20260903161528 80 316 0.0 2.0 0.00 0.00 0.00 43 1026.6
20260903161012 80 68 0.0 2.0 0.00 0.00 0.00 41 1026.6
20260903160516 80 22 0.0 1.0 0.00 0.00 0.00 41 1026.5
20260903160037 80 330 0.0 3.0 0.00 0.00 0.00 41 1026.6
20260903155515 79 354 0.0 3.0 0.00 0.00 0.00 41 1026.6
20260903155004 80 18 0.0 2.0 0.00 0.00 0.00 41 1026.6
20260903154507 80 314 0.0 2.0 0.00 0.00 0.00 39 1026.6
20260903154007 79 40 0.0 2.0 0.00 0.00 0.00 40 1026.6
20260903153507 79 30 0.0 2.0 0.00 0.00 0.00 37 1026.5
20260903153013 79 1 1.0 3.0 0.00 0.00 0.00 37 1026.6
20260903152507 79 9 1.0 3.0 0.00 0.00 0.00 37 1026.6
20260903152014 79 19 0.0 3.0 0.00 0.00 0.00 35 1026.6
20260903151520 79 49 1.0 3.0 0.00 0.00 0.00 36 1026.6
20260903151010 78 72 0.0 4.0 0.00 0.00 0.00 38 1026.7
20260903150515 78 356 0.0 4.0 0.00 0.00 0.00 40 1026.7
20260903150034 78 110 1.0 4.0 0.00 0.00 0.00 40 1026.6
20260903145515 78 57 0.0 3.0 0.00 0.00 0.00 39 1026.7
20260903145015 78 278 1.0 7.0 0.00 0.00 0.00 38 1026.7
20260903144509 78 317 1.0 7.0 0.00 0.00 0.00 39 1026.7
20260903144004 78 300 2.0 5.0 0.00 0.00 0.00 37 1026.7
20260903143503 79 286 1.0 4.0 0.00 0.00 0.00 36 1026.7
20260903143011 79 51 0.0 4.0 0.00 0.00 0.00 32 1026.8
20260903142507 79 305 2.0 4.0 0.00 0.00 0.00 37 1026.8
20260903142007 78 349 0.0 4.0 0.00 0.00 0.00 39 1026.8
20260903141517 78 57 0.0 4.0 0.00 0.00 0.00 38 1026.8
20260903141010 78 53 1.0 4.0 0.00 0.00 0.00 37 1026.8
20260903140513 78 44 0.0 4.0 0.00 0.00 0.00 40 1026.8
20260903140022 78 91 1.0 3.0 0.00 0.00 0.00 40 1026.8
20260903135513 78 336 0.0 3.0 0.00 0.00 0.00 38 1026.8
20260903135012 78 302 1.0 2.0 0.00 0.00 0.00 39 1026.8
20260903134527 78 69 0.0 4.0 0.00 0.00 0.00 39 1026.8
20260903134015 78 60 0.0 4.0 0.00 0.00 0.00 42 1026.8
20260903133516 77 271 1.0 4.0 0.00 0.00 0.00 39 1026.8
20260903133033 77 82 0.0 5.0 0.00 0.00 0.00 40 1026.9
20260903132509 77 17 1.0 5.0 0.00 0.00 0.00 39 1026.9
20260903132007 77 274 2.0 4.0 0.00 0.00 0.00 42 1026.9
20260903131513 77 243 2.0 4.0 0.00 0.00 0.00 42 1026.9
20260903131006 77 109 1.0 3.0 0.00 0.00 0.00 42 1026.9
20260903130515 77 69 0.0 3.0 0.00 0.00 0.00 42 1026.9
20260903130018 77 75 1.0 4.0 0.00 0.00 0.00 42 1026.9
20260903125511 77 323 2.0 4.0 0.00 0.00 0.00 42 1026.9
20260903125014 77 328 1.0 3.0 0.00 0.00 0.00 41 1026.9
20260903124524 78 75 0.0 3.0 0.00 0.00 0.00 41 1027.0
20260903124011 77 40 0.0 3.0 0.00 0.00 0.00 40 1027.0
20260903123515 77 89 0.0 2.0 0.00 0.00 0.00 37 1027.0
20260903123033 77 68 1.0 3.0 0.00 0.00 0.00 36 1027.0
20260903122513 76 26 0.0 6.0 0.00 0.00 0.00 33 1027.0
20260903122016 76 309 0.0 6.0 0.00 0.00 0.00 32 1027.2
20260903121550 76 321 1.0 4.0 0.00 0.00 0.00 31 1027.2
20260903121016 76 340 1.0 4.0 0.00 0.00 0.00 30 1027.3
20260903120507 76 68 1.0 3.0 0.00 0.00 0.00 31 1027.3
20260903120014 76 334 1.0 4.0 0.00 0.00 0.00 30 1027.4
20260903115510 76 30 0.0 4.0 0.00 0.00 0.00 31 1027.4
20260903115009 76 31 0.0 4.0 0.00 0.00 0.00 29 1027.4
20260903114518 76 319 1.0 4.0 0.00 0.00 0.00 29 1027.4
20260903114014 76 335 0.0 3.0 0.00 0.00 0.00 29 1027.4
20260903113515 76 285 0.0 3.0 0.00 0.00 0.00 32 1027.4
20260903113028 75 44 1.0 3.0 0.00 0.00 0.00 32 1027.4
20260903112518 75 110 1.0 4.0 0.00 0.00 0.00 34 1027.4
20260903112012 75 75 0.0 4.0 0.00 0.00 0.00 34 1027.5
20260903111529 74 58 1.0 4.0 0.00 0.00 0.00 38 1027.6
20260903111017 74 55 1.0 3.0 0.00 0.00 0.00 36 1027.6
20260903110516 73 355 0.0 3.0 0.00 0.00 0.00 32 1027.7
20260903110032 73 285 0.0 3.0 0.00 0.00 0.00 32 1027.7
20260903105518 74 42 1.0 3.0 0.00 0.00 0.00 33 1027.7
20260903105016 73 113 0.0 3.0 0.00 0.00 0.00 27 1027.7
20260903104519 73 44 1.0 3.0 0.00 0.00 0.00 26 1027.7
20260903104009 73 317 0.0 3.0 0.00 0.00 0.00 34 1027.7
20260903103513 72 319 0.0 3.0 0.00 0.00 0.00 38 1027.7
20260903103022 72 88 1.0 3.0 0.00 0.00 0.00 44 1027.7
20260903102512 72 46 1.0 3.0 0.00 0.00 0.00 48 1027.7
20260903102017 71 68 1.0 3.0 0.00 0.00 0.00 48 1027.7
20260903101524 71 108 0.0 2.0 0.00 0.00 0.00 50 1027.7
20260903101016 71 65 0.0 2.0 0.00 0.00 0.00 54 1027.7
20260903100517 71 86 0.0 2.0 0.00 0.00 0.00 53 1027.7
20260903100040 70 355 0.0 4.0 0.00 0.00 0.00 54 1027.7
20260903095516 70 60 2.0 4.0 0.00 0.00 0.00 57 1027.7
20260903095017 70 70 1.0 4.0 0.00 0.00 0.00 56 1027.7
20260903094534 69 41 0.0 3.0 0.00 0.00 0.00 55 1027.7
20260903094021 69 98 1.0 3.0 0.00 0.00 0.00 59 1027.7
20260903093516 69 51 0.0 3.0 0.00 0.00 0.00 61 1027.8
20260903093036 69 71 0.0 2.0 0.00 0.00 0.00 59 1027.8
20260903092514 68 36 1.0 2.0 0.00 0.00 0.00 61 1027.7
20260903092009 68 34 1.0 3.0 0.00 0.00 0.00 63 1027.7
20260903091502 68 89 0.0 3.0 0.00 0.00 0.00 61 1027.7
20260903091003 68 71 1.0 2.0 0.00 0.00 0.00 64 1027.7
20260903090504 67 86 1.0 2.0 0.00 0.00 0.00 66 1027.7
20260903090004 67 77 1.0 2.0 0.00 0.00 0.00 68 1027.7
20260903085504 67 68 1.0 2.0 0.00 0.00 0.00 67 1027.7
20260903085003 67 83 0.0 2.0 0.00 0.00 0.00 69 1027.6
20260903084506 66 77 1.0 2.0 0.00 0.00 0.00 70 1027.6
20260903084001 66 77 0.0 2.0 0.00 0.00 0.00 69 1027.6
20260903083502 66 79 0.0 2.0 0.00 0.00 0.00 68 1027.6
20260903083008 67 78 0.0 2.0 0.00 0.00 0.00 68 1027.5
20260903082502 66 101 0.0 2.0 0.00 0.00 0.00 69 1027.5
20260903082004 66 100 1.0 2.0 0.00 0.00 0.00 69 1027.5
20260903081505 66 78 0.0 1.0 0.00 0.00 0.00 69 1027.5
20260903081003 66 77 0.0 1.0 0.00 0.00 0.00 68 1027.5
20260903080505 66 77 0.0 2.0 0.00 0.00 0.00 69 1027.5
20260903080004 65 71 1.0 2.0 0.00 0.00 0.00 70 1027.5
20260903075502 66 92 0.0 1.0 0.00 0.00 0.00 67 1027.5
20260903075003 66 70 0.0 2.0 0.00 0.00 0.00 67 1027.5
20260903074506 66 84 0.0 2.0 0.00 0.00 0.00 65 1027.4
20260903074003 66 101 1.0 2.0 0.00 0.00 0.00 68 1027.4
20260903073504 65 91 0.0 2.0 0.00 0.00 0.00 63 1027.3
20260903073016 66 124 0.0 2.0 0.00 0.00 0.00 63 1027.3
20260903072505 65 92 0.0 1.0 0.00 0.00 0.00 64 1027.2
20260903072005 65 101 0.0 1.0 0.00 0.00 0.00 62 1027.1
20260903071507 65 76 0.0 2.0 0.00 0.00 0.00 63 1027.2
20260903071003 65 79 0.0 2.0 0.00 0.00 0.00 63 1027.2
20260903070504 65 68 0.0 1.0 0.00 0.00 0.00 59 1027.1
20260903070006 64 68 0.0 1.0 0.00 0.00 0.00 61 1027.1
20260903065506 64 96 0.0 1.0 0.00 0.00 0.00 59 1027.0
20260903065002 63 96 0.0 2.0 0.00 0.00 0.00 62 1027.0
20260903064507 62 98 0.0 2.0 0.00 0.00 0.00 63 1027.0
20260903064004 62 90 0.0 2.0 0.00 0.00 0.00 62 1026.9
20260903063504 62 93 0.0 2.0 0.00 0.00 0.00 62 1026.8
20260903063007 62 115 0.0 1.0 0.00 0.00 0.00 65 1026.8
20260903062504 62 93 0.0 1.0 0.00 0.00 0.00 66 1026.8
20260903062003 62 91 0.0 1.0 0.00 0.00 0.00 66 1026.9
20260903061508 61 91 0.0 1.0 0.00 0.00 0.00 69 1026.9
20260903061008 61 91 0.0 1.0 0.00 0.00 0.00 68 1026.8
20260903060503 60 122 0.0 2.0 0.00 0.00 0.00 69 1026.7
20260903060006 60 99 1.0 2.0 0.00 0.00 0.00 69 1026.7
20260903055503 60 105 0.0 2.0 0.00 0.00 0.00 70 1026.6
20260903055002 59 109 0.0 2.0 0.00 0.00 0.00 72 1026.6
20260903054509 58 119 0.0 1.0 0.00 0.00 0.00 74 1026.5
20260903054009 57 116 0.0 1.0 0.00 0.00 0.00 75 1026.4
20260903053509 57 108 0.0 1.0 0.00 0.00 0.00 76 1026.5
20260903053012 56 111 0.0 0.0 0.00 0.00 0.00 77 1026.5
20260903052504 56 111 0.0 1.0 0.00 0.00 0.00 76 1026.5
20260903052004 57 111 0.0 1.0 0.00 0.00 0.00 76 1026.5
20260903051509 57 112 0.0 1.0 0.00 0.00 0.00 75 1026.4
20260903051002 57 113 0.0 1.0 0.00 0.00 0.00 75 1026.3
20260903050507 57 89 0.0 1.0 0.00 0.00 0.00 75 1026.4
20260903050017 57 349 0.0 1.0 0.00 0.00 0.00 74 1026.4
20260903045508 57 341 0.0 1.0 0.00 0.00 0.00 74 1026.3
20260903045012 58 87 0.0 3.0 0.00 0.00 0.00 73 1026.2
20260903044510 58 86 0.0 3.0 0.00 0.00 0.00 73 1026.2